Location: Arcones
(41.1182°N, 3.7238°W)
Time: 02:09:16
(UTC+00:00)

Meteor 2-6 Rocket - Pass Details

Date: 11 December 2025
Orbit: 806 x 912 km, 81.3° (Epoch: 14 January)

Event Time Altitude Azimuth Distance (km) Brightness Sun altitude
Rises 19:19:54 0° 191° (SSW) 3,383 7.6 -28.1°
Reaches altitude 10° 19:22:17 10° 193° (SSW) 2,468 6.8 -28.5°
Maximum altitude 19:27:53 78° 280° (W) 891 4.2 -29.6°
Enters shadow 19:28:01 78° 297° (WNW) 893 4.2 -29.6°
